Date_Time,Julian_Date,Latitude,Longitude,Instrument_Depth,U,V,Speed,Direction
(yyyy-mm-dd hh:mn:ss UTC),(JD),(+ deg. North),(+ deg. East),(m),(cm/s),(cm/s),(cm/s),(deg True)
1984-03-21 18:30:00 UTC,2445781.270833,28.7467,-95.2267,0192,4.57,-21.52,22.0000,168.0000
1984-03-21 19:00:00 UTC,2445781.291667,28.7467,-95.2267,0192,4.20,-21.60,22.0000,169.0000
1984-03-21 19:30:00 UTC,2445781.312500,28.7467,-95.2267,0192,4.78,-22.50,23.0000,168.0000
1984-03-21 20:00:00 UTC,2445781.333333,28.7467,-95.2267,0192,5.40,-23.38,24.0000,167.0000
1984-03-21 20:30:00 UTC,2445781.354167,28.7467,-95.2267,0192,5.17,-22.41,23.0000,167.0000
1984-03-21 21:00:00 UTC,2445781.375000,28.7467,-95.2267,0192,4.57,-21.52,22.0000,168.0000
1984-03-21 21:30:00 UTC,2445781.395833,28.7467,-95.2267,0192,4.72,-20.46,21.0000,167.0000
1984-03-21 22:00:00 UTC,2445781.416667,28.7467,-95.2267,0192,4.84,-19.41,20.0000,166.0000
1984-03-21 22:30:00 UTC,2445781.437500,28.7467,-95.2267,0192,4.66,-17.39,18.0000,165.0000
1984-03-21 23:00:00 UTC,2445781.458333,28.7467,-95.2267,0192,5.25,-16.17,17.0000,162.0000
1984-03-21 23:30:00 UTC,2445781.479167,28.7467,-95.2267,0192,6.09,-15.87,17.0000,159.0000
1984-03-22 00:00:00 UTC,2445781.500000,28.7467,-95.2267,0192,6.58,-13.48,15.0000,154.0000
1984-03-22 00:30:00 UTC,2445781.520833,28.7467,-95.2267,0192,6.30,-11.37,13.0000,151.0000
1984-03-22 01:00:00 UTC,2445781.541667,28.7467,-95.2267,0192,4.07,-9.14,10.0000,156.0000
1984-03-22 01:30:00 UTC,2445781.562500,28.7467,-95.2267,0192,1.35,-5.85,6.0000,167.0000
1984-03-22 02:00:00 UTC,2445781.583333,28.7467,-95.2267,0192,0.21,-1.99,2.0000,174.0000
1984-03-22 02:30:00 UTC,2445781.604167,28.7467,-95.2267,0192,0.00,-0.00,0.0000,180.0000
1984-03-22 03:00:00 UTC,2445781.625000,28.7467,-95.2267,0192,-0.00,-0.00,0.0000,185.0000
1984-03-22 03:30:00 UTC,2445781.645833,28.7467,-95.2267,0192,0.14,-2.00,2.0000,176.0000
1984-03-22 04:00:00 UTC,2445781.666667,28.7467,-95.2267,0192,0.49,-3.97,4.0000,173.0000
1984-03-22 04:30:00 UTC,2445781.687500,28.7467,-95.2267,0192,0.95,-4.91,5.0000,169.0000
1984-03-22 05:00:00 UTC,2445781.708333,28.7467,-95.2267,0192,1.46,-4.78,5.0000,163.0000
1984-03-22 05:30:00 UTC,2445781.729167,28.7467,-95.2267,0192,1.63,-3.65,4.0000,156.0000
1984-03-22 06:00:00 UTC,2445781.750000,28.7467,-95.2267,0192,1.71,-4.70,5.0000,160.0000
1984-03-22 06:30:00 UTC,2445781.770833,28.7467,-95.2267,0192,1.75,-5.74,6.0000,163.0000
1984-03-22 07:00:00 UTC,2445781.791667,28.7467,-95.2267,0192,2.62,-6.49,7.0000,158.0000
1984-03-22 07:30:00 UTC,2445781.812500,28.7467,-95.2267,0192,3.18,-6.24,7.0000,153.0000
1984-03-22 08:00:00 UTC,2445781.833333,28.7467,-95.2267,0192,3.76,-7.06,8.0000,152.0000
1984-03-22 08:30:00 UTC,2445781.854167,28.7467,-95.2267,0192,4.36,-7.87,9.0000,151.0000
1984-03-22 09:00:00 UTC,2445781.875000,28.7467,-95.2267,0192,4.69,-8.83,10.0000,152.0000
1984-03-22 09:30:00 UTC,2445781.895833,28.7467,-95.2267,0192,4.82,-9.89,11.0000,154.0000
1984-03-22 10:00:00 UTC,2445781.916667,28.7467,-95.2267,0192,5.70,-11.68,13.0000,154.0000
1984-03-22 10:30:00 UTC,2445781.937500,28.7467,-95.2267,0192,5.69,-12.79,14.0000,156.0000
1984-03-22 11:00:00 UTC,2445781.958333,28.7467,-95.2267,0192,5.38,-14.00,15.0000,159.0000
1984-03-22 11:30:00 UTC,2445781.979167,28.7467,-95.2267,0192,5.47,-15.04,16.0000,160.0000
1984-03-22 12:00:00 UTC,2445782.000000,28.7467,-95.2267,0192,5.53,-16.07,17.0000,161.0000
1984-03-22 12:30:00 UTC,2445782.020833,28.7467,-95.2267,0192,5.26,-17.21,18.0000,163.0000
1984-03-22 13:00:00 UTC,2445782.041667,28.7467,-95.2267,0192,4.96,-17.30,18.0000,164.0000
1984-03-22 13:30:00 UTC,2445782.062500,28.7467,-95.2267,0192,4.60,-18.44,19.0000,166.0000
1984-03-22 14:00:00 UTC,2445782.083333,28.7467,-95.2267,0192,3.74,-17.61,18.0000,168.0000
1984-03-22 14:30:00 UTC,2445782.104167,28.7467,-95.2267,0192,2.82,-17.78,18.0000,171.0000
1984-03-22 15:00:00 UTC,2445782.125000,28.7467,-95.2267,0192,2.19,-17.87,18.0000,173.0000
1984-03-22 15:30:00 UTC,2445782.145833,28.7467,-95.2267,0192,2.82,-17.78,18.0000,171.0000
1984-03-22 16:00:00 UTC,2445782.166667,28.7467,-95.2267,0192,3.43,-17.67,18.0000,169.0000
1984-03-22 16:30:00 UTC,2445782.187500,28.7467,-95.2267,0192,3.24,-16.69,17.0000,169.0000
1984-03-22 17:00:00 UTC,2445782.208333,28.7467,-95.2267,0192,2.95,-16.74,17.0000,170.0000
1984-03-22 17:30:00 UTC,2445782.229167,28.7467,-95.2267,0192,2.95,-16.74,17.0000,170.0000
1984-03-22 18:00:00 UTC,2445782.250000,28.7467,-95.2267,0192,2.82,-17.78,18.0000,171.0000
1984-03-22 18:30:00 UTC,2445782.270833,28.7467,-95.2267,0192,2.51,-17.82,18.0000,172.0000
1984-03-22 19:00:00 UTC,2445782.291667,28.7467,-95.2267,0192,2.97,-18.77,19.0000,171.0000
1984-03-22 19:30:00 UTC,2445782.312500,28.7467,-95.2267,0192,4.16,-19.56,20.0000,168.0000
1984-03-22 20:00:00 UTC,2445782.333333,28.7467,-95.2267,0192,6.14,-20.08,21.0000,163.0000
1984-03-22 20:30:00 UTC,2445782.354167,28.7467,-95.2267,0192,8.60,-20.25,22.0000,157.0000
1984-03-22 21:00:00 UTC,2445782.375000,28.7467,-95.2267,0192,8.77,-17.98,20.0000,154.0000
1984-03-22 21:30:00 UTC,2445782.395833,28.7467,-95.2267,0192,8.33,-17.08,19.0000,154.0000
1984-03-22 22:00:00 UTC,2445782.416667,28.7467,-95.2267,0192,8.63,-16.93,19.0000,153.0000
1984-03-22 22:30:00 UTC,2445782.437500,28.7467,-95.2267,0192,9.79,-16.29,19.0000,149.0000
1984-03-22 23:00:00 UTC,2445782.458333,28.7467,-95.2267,0192,11.08,-14.18,18.0000,142.0000
1984-03-22 23:30:00 UTC,2445782.479167,28.7467,-95.2267,0192,10.71,-11.89,16.0000,138.0000
1984-03-23 00:00:00 UTC,2445782.500000,28.7467,-95.2267,0192,10.07,-9.73,14.0000,134.0000
1984-03-23 00:30:00 UTC,2445782.520833,28.7467,-95.2267,0192,9.19,-7.71,12.0000,130.0000
1984-03-23 01:00:00 UTC,2445782.541667,28.7467,-95.2267,0192,9.01,-6.31,11.0000,125.0000
1984-03-23 01:30:00 UTC,2445782.562500,28.7467,-95.2267,0192,9.06,-4.23,10.0000,115.0000
1984-03-23 02:00:00 UTC,2445782.583333,28.7467,-95.2267,0192,8.69,-2.33,9.0000,105.0000
1984-03-23 02:30:00 UTC,2445782.604167,28.7467,-95.2267,0192,8.86,-1.56,9.0000,100.0000
1984-03-23 03:00:00 UTC,2445782.625000,28.7467,-95.2267,0192,7.83,-1.66,8.0000,102.0000
1984-03-23 03:30:00 UTC,2445782.645833,28.7467,-95.2267,0192,6.39,-2.85,7.0000,114.0000
1984-03-23 04:00:00 UTC,2445782.666667,28.7467,-95.2267,0192,5.12,-4.77,7.0000,133.0000
1984-03-23 04:30:00 UTC,2445782.687500,28.7467,-95.2267,0192,3.63,-7.13,8.0000,153.0000
1984-03-23 05:00:00 UTC,2445782.708333,28.7467,-95.2267,0192,1.41,-8.89,9.0000,171.0000
1984-03-23 05:30:00 UTC,2445782.729167,28.7467,-95.2267,0192,-0.38,-10.99,11.0000,182.0000
1984-03-23 06:00:00 UTC,2445782.750000,28.7467,-95.2267,0192,-2.26,-12.80,13.0000,190.0000
1984-03-23 06:30:00 UTC,2445782.770833,28.7467,-95.2267,0192,-4.09,-13.39,14.0000,197.0000
1984-03-23 07:00:00 UTC,2445782.791667,28.7467,-95.2267,0192,-5.86,-13.81,15.0000,203.0000
1984-03-23 07:30:00 UTC,2445782.812500,28.7467,-95.2267,0192,-9.01,-14.42,17.0000,212.0000
1984-03-23 08:00:00 UTC,2445782.833333,28.7467,-95.2267,0192,-11.08,-14.18,18.0000,218.0000
1984-03-23 08:30:00 UTC,2445782.854167,28.7467,-95.2267,0192,-11.33,-13.99,18.0000,219.0000
1984-03-23 09:00:00 UTC,2445782.875000,28.7467,-95.2267,0192,-12.31,-15.76,20.0000,218.0000
1984-03-23 09:30:00 UTC,2445782.895833,28.7467,-95.2267,0192,-13.54,-17.34,22.0000,218.0000
1984-03-23 10:00:00 UTC,2445782.916667,28.7467,-95.2267,0192,-14.78,-18.91,24.0000,218.0000
1984-03-23 10:30:00 UTC,2445782.937500,28.7467,-95.2267,0192,-16.36,-20.21,26.0000,219.0000
1984-03-23 11:00:00 UTC,2445782.958333,28.7467,-95.2267,0192,-14.69,-20.23,25.0000,216.0000
1984-03-23 11:30:00 UTC,2445782.979167,28.7467,-95.2267,0192,-11.27,-21.19,24.0000,208.0000
1984-03-23 12:00:00 UTC,2445783.000000,28.7467,-95.2267,0192,-7.73,-23.78,25.0000,198.0000
1984-03-23 12:30:00 UTC,2445783.020833,28.7467,-95.2267,0192,-4.99,-23.48,24.0000,192.0000
1984-03-23 13:00:00 UTC,2445783.041667,28.7467,-95.2267,0192,-5.32,-21.35,22.0000,194.0000
1984-03-23 13:30:00 UTC,2445783.062500,28.7467,-95.2267,0192,-6.84,-19.86,21.0000,199.0000
1984-03-23 14:00:00 UTC,2445783.083333,28.7467,-95.2267,0192,-8.87,-19.03,21.0000,205.0000
1984-03-23 14:30:00 UTC,2445783.104167,28.7467,-95.2267,0192,-9.21,-16.62,19.0000,209.0000
1984-03-23 15:00:00 UTC,2445783.125000,28.7467,-95.2267,0192,-8.73,-15.74,18.0000,209.0000
1984-03-23 15:30:00 UTC,2445783.145833,28.7467,-95.2267,0192,-7.73,-17.36,19.0000,204.0000
1984-03-23 16:00:00 UTC,2445783.166667,28.7467,-95.2267,0192,-7.42,-17.49,19.0000,203.0000
1984-03-23 16:30:00 UTC,2445783.187500,28.7467,-95.2267,0192,-8.77,-17.98,20.0000,206.0000
1984-03-23 17:00:00 UTC,2445783.208333,28.7467,-95.2267,0192,-9.53,-18.71,21.0000,207.0000
1984-03-23 17:30:00 UTC,2445783.229167,28.7467,-95.2267,0192,-8.87,-19.03,21.0000,205.0000
1984-03-23 18:00:00 UTC,2445783.250000,28.7467,-95.2267,0192,-8.54,-19.18,21.0000,204.0000
1984-03-23 18:30:00 UTC,2445783.270833,28.7467,-95.2267,0192,-7.49,-18.54,20.0000,202.0000
1984-03-23 19:00:00 UTC,2445783.291667,28.7467,-95.2267,0192,-6.51,-18.91,20.0000,199.0000
1984-03-23 19:30:00 UTC,2445783.312500,28.7467,-95.2267,0192,-5.51,-19.23,20.0000,196.0000
1984-03-23 20:00:00 UTC,2445783.333333,28.7467,-95.2267,0192,-5.79,-20.19,21.0000,196.0000
1984-03-23 20:30:00 UTC,2445783.354167,28.7467,-95.2267,0192,-6.14,-20.08,21.0000,197.0000
1984-03-23 21:00:00 UTC,2445783.375000,28.7467,-95.2267,0192,-7.16,-20.80,22.0000,199.0000
1984-03-23 21:30:00 UTC,2445783.395833,28.7467,-95.2267,0192,-7.52,-20.67,22.0000,200.0000
1984-03-23 22:00:00 UTC,2445783.416667,28.7467,-95.2267,0192,-6.43,-21.04,22.0000,197.0000
1984-03-23 22:30:00 UTC,2445783.437500,28.7467,-95.2267,0192,-5.32,-21.35,22.0000,194.0000
1984-03-23 23:00:00 UTC,2445783.458333,28.7467,-95.2267,0192,-5.79,-20.19,21.0000,196.0000
1984-03-23 23:30:00 UTC,2445783.479167,28.7467,-95.2267,0192,-7.53,-19.61,21.0000,201.0000
1984-03-24 00:00:00 UTC,2445783.500000,28.7467,-95.2267,0192,-8.95,-20.10,22.0000,204.0000
1984-03-24 00:30:00 UTC,2445783.520833,28.7467,-95.2267,0192,-9.30,-19.94,22.0000,205.0000
1984-03-24 01:00:00 UTC,2445783.541667,28.7467,-95.2267,0192,-9.30,-19.94,22.0000,205.0000
1984-03-24 01:30:00 UTC,2445783.562500,28.7467,-95.2267,0192,-8.24,-20.40,22.0000,202.0000
1984-03-24 02:00:00 UTC,2445783.583333,28.7467,-95.2267,0192,-7.11,-21.87,23.0000,198.0000
1984-03-24 02:30:00 UTC,2445783.604167,28.7467,-95.2267,0192,-7.81,-22.69,24.0000,199.0000
1984-03-24 03:00:00 UTC,2445783.625000,28.7467,-95.2267,0192,-9.74,-24.11,26.0000,202.0000
1984-03-24 03:30:00 UTC,2445783.645833,28.7467,-95.2267,0192,-10.98,-24.67,27.0000,204.0000
1984-03-24 04:00:00 UTC,2445783.666667,28.7467,-95.2267,0192,-10.94,-25.77,28.0000,203.0000
1984-03-24 04:30:00 UTC,2445783.687500,28.7467,-95.2267,0192,-10.75,-28.01,30.0000,201.0000
1984-03-24 05:00:00 UTC,2445783.708333,28.7467,-95.2267,0192,-10.75,-28.01,30.0000,201.0000
1984-03-24 05:30:00 UTC,2445783.729167,28.7467,-95.2267,0192,-12.71,-26.07,29.0000,206.0000
1984-03-24 06:00:00 UTC,2445783.750000,28.7467,-95.2267,0192,-16.22,-24.04,29.0000,214.0000
1984-03-24 06:30:00 UTC,2445783.770833,28.7467,-95.2267,0192,-17.24,-22.06,28.0000,218.0000
1984-03-24 07:00:00 UTC,2445783.791667,28.7467,-95.2267,0192,-16.62,-21.28,27.0000,218.0000
1984-03-24 07:30:00 UTC,2445783.812500,28.7467,-95.2267,0192,-15.05,-19.97,25.0000,217.0000
1984-03-24 08:00:00 UTC,2445783.833333,28.7467,-95.2267,0192,-13.77,-19.66,24.0000,215.0000
1984-03-24 08:30:00 UTC,2445783.854167,28.7467,-95.2267,0192,-12.19,-19.51,23.0000,212.0000
1984-03-24 09:00:00 UTC,2445783.875000,28.7467,-95.2267,0192,-11.50,-19.92,23.0000,210.0000
1984-03-24 09:30:00 UTC,2445783.895833,28.7467,-95.2267,0192,-10.33,-19.42,22.0000,208.0000
1984-03-24 10:00:00 UTC,2445783.916667,28.7467,-95.2267,0192,-10.18,-18.37,21.0000,209.0000
1984-03-24 10:30:00 UTC,2445783.937500,28.7467,-95.2267,0192,-9.39,-17.66,20.0000,208.0000
1984-03-24 11:00:00 UTC,2445783.958333,28.7467,-95.2267,0192,-8.45,-15.89,18.0000,208.0000
1984-03-24 11:30:00 UTC,2445783.979167,28.7467,-95.2267,0192,-8.24,-14.87,17.0000,209.0000
1984-03-24 12:00:00 UTC,2445784.000000,28.7467,-95.2267,0192,-9.03,-11.98,15.0000,217.0000
1984-03-24 12:30:00 UTC,2445784.020833,28.7467,-95.2267,0192,-11.32,-9.84,15.0000,229.0000
1984-03-24 13:00:00 UTC,2445784.041667,28.7467,-95.2267,0192,-11.02,-6.89,13.0000,238.0000
1984-03-24 13:30:00 UTC,2445784.062500,28.7467,-95.2267,0192,-8.09,-3.95,9.0000,244.0000
1984-03-24 14:00:00 UTC,2445784.083333,28.7467,-95.2267,0192,-5.56,-2.25,6.0000,248.0000
1984-03-24 14:30:00 UTC,2445784.104167,28.7467,-95.2267,0192,-2.76,-1.17,3.0000,247.0000
1984-03-24 15:00:00 UTC,2445784.125000,28.7467,-95.2267,0192,-0.89,-0.45,1.0000,243.0000
1984-03-24 15:30:00 UTC,2445784.145833,28.7467,-95.2267,0192,-0.00,-0.00,0.0000,209.0000
1984-03-24 16:00:00 UTC,2445784.166667,28.7467,-95.2267,0192,-0.42,-1.96,2.0000,192.0000
1984-03-24 16:30:00 UTC,2445784.187500,28.7467,-95.2267,0192,-0.69,-3.94,4.0000,190.0000
1984-03-24 17:00:00 UTC,2445784.208333,28.7467,-95.2267,0192,-0.95,-4.91,5.0000,191.0000
1984-03-24 17:30:00 UTC,2445784.229167,28.7467,-95.2267,0192,-1.04,-4.89,5.0000,192.0000
1984-03-24 18:00:00 UTC,2445784.250000,28.7467,-95.2267,0192,-0.78,-2.90,3.0000,195.0000
1984-03-24 18:30:00 UTC,2445784.270833,28.7467,-95.2267,0192,-0.78,-1.84,2.0000,203.0000
1984-03-24 19:00:00 UTC,2445784.291667,28.7467,-95.2267,0192,-0.00,-0.00,0.0000,211.0000
1984-03-24 19:30:00 UTC,2445784.312500,28.7467,-95.2267,0192,-0.00,-0.00,0.0000,242.0000
1984-03-24 20:00:00 UTC,2445784.333333,28.7467,-95.2267,0192,-0.71,-0.71,1.0000,225.0000
1984-03-24 20:30:00 UTC,2445784.354167,28.7467,-95.2267,0192,-1.15,-1.64,2.0000,215.0000
1984-03-24 21:00:00 UTC,2445784.375000,28.7467,-95.2267,0192,-0.42,-0.91,1.0000,205.0000
1984-03-24 21:30:00 UTC,2445784.395833,28.7467,-95.2267,0192,0.00,-0.00,0.0000,176.0000
1984-03-24 22:00:00 UTC,2445784.416667,28.7467,-95.2267,0192,0.86,-0.52,1.0000,121.0000
1984-03-24 22:30:00 UTC,2445784.437500,28.7467,-95.2267,0192,2.80,-1.08,3.0000,111.0000
1984-03-24 23:00:00 UTC,2445784.458333,28.7467,-95.2267,0192,4.83,-1.29,5.0000,105.0000
1984-03-24 23:30:00 UTC,2445784.479167,28.7467,-95.2267,0192,5.85,-1.35,6.0000,103.0000
1984-03-25 00:00:00 UTC,2445784.500000,28.7467,-95.2267,0192,6.76,-1.81,7.0000,105.0000
1984-03-25 00:30:00 UTC,2445784.520833,28.7467,-95.2267,0192,6.49,-2.62,7.0000,112.0000
1984-03-25 01:00:00 UTC,2445784.541667,28.7467,-95.2267,0192,4.29,-2.58,5.0000,121.0000
1984-03-25 01:30:00 UTC,2445784.562500,28.7467,-95.2267,0192,3.43,-2.06,4.0000,121.0000
1984-03-25 02:00:00 UTC,2445784.583333,28.7467,-95.2267,0192,2.72,-1.27,3.0000,115.0000
1984-03-25 02:30:00 UTC,2445784.604167,28.7467,-95.2267,0192,0.92,-0.39,1.0000,113.0000
1984-03-25 03:00:00 UTC,2445784.625000,28.7467,-95.2267,0192,0.00,-0.00,0.0000,175.0000
1984-03-25 03:30:00 UTC,2445784.645833,28.7467,-95.2267,0192,-0.71,-0.71,1.0000,225.0000
1984-03-25 04:00:00 UTC,2445784.666667,28.7467,-95.2267,0192,-1.95,-0.45,2.0000,257.0000
1984-03-25 04:30:00 UTC,2445784.687500,28.7467,-95.2267,0192,-3.98,0.35,4.0000,275.0000
1984-03-25 05:00:00 UTC,2445784.708333,28.7467,-95.2267,0192,-4.96,0.61,5.0000,277.0000
1984-03-25 05:30:00 UTC,2445784.729167,28.7467,-95.2267,0192,-6.96,0.73,7.0000,276.0000
1984-03-25 06:00:00 UTC,2445784.750000,28.7467,-95.2267,0192,-6.95,0.85,7.0000,277.0000
1984-03-25 06:30:00 UTC,2445784.770833,28.7467,-95.2267,0192,-6.93,0.97,7.0000,278.0000
1984-03-25 07:00:00 UTC,2445784.791667,28.7467,-95.2267,0192,-6.96,0.73,7.0000,276.0000
1984-03-25 07:30:00 UTC,2445784.812500,28.7467,-95.2267,0192,-5.99,0.42,6.0000,274.0000
1984-03-25 08:00:00 UTC,2445784.833333,28.7467,-95.2267,0192,-5.98,0.52,6.0000,275.0000
1984-03-25 08:30:00 UTC,2445784.854167,28.7467,-95.2267,0192,-6.96,0.73,7.0000,276.0000
1984-03-25 09:00:00 UTC,2445784.875000,28.7467,-95.2267,0192,-6.96,0.73,7.0000,276.0000
1984-03-25 09:30:00 UTC,2445784.895833,28.7467,-95.2267,0192,-7.00,-0.12,7.0000,269.0000
1984-03-25 10:00:00 UTC,2445784.916667,28.7467,-95.2267,0192,-6.69,-2.05,7.0000,253.0000
1984-03-25 10:30:00 UTC,2445784.937500,28.7467,-95.2267,0192,-5.80,-3.91,7.0000,236.0000
1984-03-25 11:00:00 UTC,2445784.958333,28.7467,-95.2267,0192,-6.25,-6.47,9.0000,224.0000
1984-03-25 11:30:00 UTC,2445784.979167,28.7467,-95.2267,0192,-6.31,-9.01,11.0000,215.0000
1984-03-25 12:00:00 UTC,2445785.000000,28.7467,-95.2267,0192,-5.45,-10.69,12.0000,207.0000
1984-03-25 12:30:00 UTC,2445785.020833,28.7467,-95.2267,0192,-4.23,-12.29,13.0000,199.0000
1984-03-25 13:00:00 UTC,2445785.041667,28.7467,-95.2267,0192,-2.03,-12.84,13.0000,189.0000
1984-03-25 13:30:00 UTC,2445785.062500,28.7467,-95.2267,0192,0.00,-13.00,13.0000,180.0000
1984-03-25 14:00:00 UTC,2445785.083333,28.7467,-95.2267,0192,2.03,-12.84,13.0000,171.0000
1984-03-25 14:30:00 UTC,2445785.104167,28.7467,-95.2267,0192,4.02,-12.36,13.0000,162.0000
1984-03-25 15:00:00 UTC,2445785.125000,28.7467,-95.2267,0192,5.29,-11.88,13.0000,156.0000
1984-03-25 15:30:00 UTC,2445785.145833,28.7467,-95.2267,0192,5.45,-10.69,12.0000,153.0000
1984-03-25 16:00:00 UTC,2445785.166667,28.7467,-95.2267,0192,5.82,-10.50,12.0000,151.0000
1984-03-25 16:30:00 UTC,2445785.187500,28.7467,-95.2267,0192,5.67,-9.43,11.0000,149.0000
1984-03-25 17:00:00 UTC,2445785.208333,28.7467,-95.2267,0192,5.45,-8.39,10.0000,147.0000
1984-03-25 17:30:00 UTC,2445785.229167,28.7467,-95.2267,0192,5.15,-8.57,10.0000,149.0000
1984-03-25 18:00:00 UTC,2445785.250000,28.7467,-95.2267,0192,3.66,-8.22,9.0000,156.0000
1984-03-25 18:30:00 UTC,2445785.270833,28.7467,-95.2267,0192,2.78,-8.56,9.0000,162.0000
1984-03-25 19:00:00 UTC,2445785.291667,28.7467,-95.2267,0192,2.21,-7.69,8.0000,164.0000
1984-03-25 19:30:00 UTC,2445785.312500,28.7467,-95.2267,0192,1.93,-6.73,7.0000,164.0000
1984-03-25 20:00:00 UTC,2445785.333333,28.7467,-95.2267,0192,1.17,-3.83,4.0000,163.0000
1984-03-25 20:30:00 UTC,2445785.354167,28.7467,-95.2267,0192,0.33,-0.95,1.0000,161.0000
1984-03-25 21:00:00 UTC,2445785.375000,28.7467,-95.2267,0192,-0.00,-0.00,0.0000,181.0000
1984-03-25 21:30:00 UTC,2445785.395833,28.7467,-95.2267,0192,-0.00,-0.00,0.0000,232.0000
1984-03-25 22:00:00 UTC,2445785.416667,28.7467,-95.2267,0192,-0.96,-0.28,1.0000,254.0000
1984-03-25 22:30:00 UTC,2445785.437500,28.7467,-95.2267,0192,-2.00,0.03,2.0000,271.0000
1984-03-25 23:00:00 UTC,2445785.458333,28.7467,-95.2267,0192,-2.98,-0.31,3.0000,264.0000
1984-03-25 23:30:00 UTC,2445785.479167,28.7467,-95.2267,0192,-3.60,-1.75,4.0000,244.0000
1984-03-26 00:00:00 UTC,2445785.500000,28.7467,-95.2267,0192,-3.21,-3.83,5.0000,220.0000
1984-03-26 00:30:00 UTC,2445785.520833,28.7467,-95.2267,0192,-1.87,-4.64,5.0000,202.0000
1984-03-26 01:00:00 UTC,2445785.541667,28.7467,-95.2267,0192,-1.38,-4.81,5.0000,196.0000
1984-03-26 01:30:00 UTC,2445785.562500,28.7467,-95.2267,0192,-2.19,-4.49,5.0000,206.0000
1984-03-26 02:00:00 UTC,2445785.583333,28.7467,-95.2267,0192,-3.36,-4.97,6.0000,214.0000
1984-03-26 02:30:00 UTC,2445785.604167,28.7467,-95.2267,0192,-3.53,-4.85,6.0000,216.0000
1984-03-26 03:00:00 UTC,2445785.625000,28.7467,-95.2267,0192,-3.78,-4.66,6.0000,219.0000
1984-03-26 03:30:00 UTC,2445785.645833,28.7467,-95.2267,0192,-3.91,-5.80,7.0000,214.0000
1984-03-26 04:00:00 UTC,2445785.666667,28.7467,-95.2267,0192,-3.52,-8.28,9.0000,203.0000
1984-03-26 04:30:00 UTC,2445785.687500,28.7467,-95.2267,0192,-3.03,-10.57,11.0000,196.0000
1984-03-26 05:00:00 UTC,2445785.708333,28.7467,-95.2267,0192,-2.70,-11.69,12.0000,193.0000
1984-03-26 05:30:00 UTC,2445785.729167,28.7467,-95.2267,0192,-2.10,-10.80,11.0000,191.0000
1984-03-26 06:00:00 UTC,2445785.750000,28.7467,-95.2267,0192,-1.72,-8.83,9.0000,191.0000
1984-03-26 06:30:00 UTC,2445785.770833,28.7467,-95.2267,0192,-3.23,-8.40,9.0000,201.0000
1984-03-26 07:00:00 UTC,2445785.791667,28.7467,-95.2267,0192,-4.36,-7.87,9.0000,209.0000
1984-03-26 07:30:00 UTC,2445785.812500,28.7467,-95.2267,0192,-3.76,-7.06,8.0000,208.0000
1984-03-26 08:00:00 UTC,2445785.833333,28.7467,-95.2267,0192,-2.96,-6.34,7.0000,205.0000
1984-03-26 08:30:00 UTC,2445785.854167,28.7467,-95.2267,0192,-3.13,-7.36,8.0000,203.0000
1984-03-26 09:00:00 UTC,2445785.875000,28.7467,-95.2267,0192,-1.34,-6.87,7.0000,191.0000
1984-03-26 09:30:00 UTC,2445785.895833,28.7467,-95.2267,0192,0.73,-6.96,7.0000,174.0000
1984-03-26 10:00:00 UTC,2445785.916667,28.7467,-95.2267,0192,1.95,-5.67,6.0000,161.0000
1984-03-26 10:30:00 UTC,2445785.937500,28.7467,-95.2267,0192,3.18,-5.09,6.0000,148.0000
1984-03-26 11:00:00 UTC,2445785.958333,28.7467,-95.2267,0192,4.41,-5.44,7.0000,141.0000
1984-03-26 11:30:00 UTC,2445785.979167,28.7467,-95.2267,0192,5.75,-5.56,8.0000,134.0000
1984-03-26 12:00:00 UTC,2445786.000000,28.7467,-95.2267,0192,6.04,-5.25,8.0000,131.0000
1984-03-26 12:30:00 UTC,2445786.020833,28.7467,-95.2267,0192,6.95,-7.19,10.0000,136.0000
1984-03-26 13:00:00 UTC,2445786.041667,28.7467,-95.2267,0192,7.46,-10.65,13.0000,145.0000
1984-03-26 13:30:00 UTC,2445786.062500,28.7467,-95.2267,0192,7.51,-14.13,16.0000,152.0000
1984-03-26 14:00:00 UTC,2445786.083333,28.7467,-95.2267,0192,7.18,-15.41,17.0000,155.0000
1984-03-26 14:30:00 UTC,2445786.104167,28.7467,-95.2267,0192,7.32,-16.44,18.0000,156.0000
1984-03-26 15:00:00 UTC,2445786.125000,28.7467,-95.2267,0192,7.12,-17.62,19.0000,158.0000
1984-03-26 15:30:00 UTC,2445786.145833,28.7467,-95.2267,0192,6.81,-17.74,19.0000,159.0000
1984-03-26 16:00:00 UTC,2445786.166667,28.7467,-95.2267,0192,7.61,-16.31,18.0000,155.0000
1984-03-26 16:30:00 UTC,2445786.187500,28.7467,-95.2267,0192,8.50,-14.72,17.0000,150.0000
1984-03-26 17:00:00 UTC,2445786.208333,28.7467,-95.2267,0192,9.51,-14.09,17.0000,146.0000
1984-03-26 17:30:00 UTC,2445786.229167,28.7467,-95.2267,0192,10.07,-12.43,16.0000,141.0000
1984-03-26 18:00:00 UTC,2445786.250000,28.7467,-95.2267,0192,9.73,-10.07,14.0000,136.0000
1984-03-26 18:30:00 UTC,2445786.270833,28.7467,-95.2267,0192,9.06,-7.87,12.0000,131.0000
1984-03-26 19:00:00 UTC,2445786.291667,28.7467,-95.2267,0192,7.88,-6.16,10.0000,128.0000
1984-03-26 19:30:00 UTC,2445786.312500,28.7467,-95.2267,0192,7.46,-5.03,9.0000,124.0000
1984-03-26 20:00:00 UTC,2445786.333333,28.7467,-95.2267,0192,7.13,-3.63,8.0000,117.0000
1984-03-26 20:30:00 UTC,2445786.354167,28.7467,-95.2267,0192,5.56,-2.25,6.0000,112.0000
1984-03-26 21:00:00 UTC,2445786.375000,28.7467,-95.2267,0192,4.73,-1.63,5.0000,109.0000
1984-03-26 21:30:00 UTC,2445786.395833,28.7467,-95.2267,0192,3.93,-0.76,4.0000,101.0000
1984-03-26 22:00:00 UTC,2445786.416667,28.7467,-95.2267,0192,1.98,-0.28,2.0000,98.0000
1984-03-26 22:30:00 UTC,2445786.437500,28.7467,-95.2267,0192,0.98,-0.19,1.0000,101.0000
1984-03-26 23:00:00 UTC,2445786.458333,28.7467,-95.2267,0192,0.00,-0.00,0.0000,107.0000
1984-03-26 23:30:00 UTC,2445786.479167,28.7467,-95.2267,0192,-0.00,0.00,0.0000,319.0000
1984-03-27 00:00:00 UTC,2445786.500000,28.7467,-95.2267,0192,-0.00,-0.00,0.0000,239.0000
1984-03-27 00:30:00 UTC,2445786.520833,28.7467,-95.2267,0192,-1.29,-1.53,2.0000,220.0000
1984-03-27 01:00:00 UTC,2445786.541667,28.7467,-95.2267,0192,-2.80,-4.15,5.0000,214.0000
1984-03-27 01:30:00 UTC,2445786.562500,28.7467,-95.2267,0192,-4.50,-7.79,9.0000,210.0000
1984-03-27 02:00:00 UTC,2445786.583333,28.7467,-95.2267,0192,-4.65,-9.97,11.0000,205.0000
1984-03-27 02:30:00 UTC,2445786.604167,28.7467,-95.2267,0192,-3.58,-10.40,11.0000,199.0000
1984-03-27 03:00:00 UTC,2445786.625000,28.7467,-95.2267,0192,-3.71,-11.41,12.0000,198.0000
1984-03-27 03:30:00 UTC,2445786.645833,28.7467,-95.2267,0192,-4.02,-12.36,13.0000,198.0000
1984-03-27 04:00:00 UTC,2445786.666667,28.7467,-95.2267,0192,-4.13,-14.42,15.0000,196.0000
1984-03-27 04:30:00 UTC,2445786.687500,28.7467,-95.2267,0192,-3.05,-15.71,16.0000,191.0000
1984-03-27 05:00:00 UTC,2445786.708333,28.7467,-95.2267,0192,-1.39,-15.94,16.0000,185.0000
1984-03-27 05:30:00 UTC,2445786.729167,28.7467,-95.2267,0192,-0.26,-15.00,15.0000,181.0000
1984-03-27 06:00:00 UTC,2445786.750000,28.7467,-95.2267,0192,0.00,-14.00,14.0000,180.0000
1984-03-27 06:30:00 UTC,2445786.770833,28.7467,-95.2267,0192,0.00,-12.00,12.0000,180.0000